owner,sensor,date,latitude,longitude,vertical_datum,direction_of_sea_water_velocity,sea_water_speed,upward_sea_water_velocity,qcFlag 
TABS,ioos:station:wmo:42045:1,2017-05-01T00:00:00Z,26.2168,-96.4998,2.0,265.2131307,31.27908247,-99999.0,'11111222,11111222,99999999' 
TABS,ioos:station:wmo:42045:1,2017-05-01T00:30:00Z,26.2168,-96.4998,2.0,265.8255594,28.16470486,-99999.0,'11111222,11111222,99999999' 
TABS,ioos:station:wmo:42045:1,2017-05-01T01:00:00Z,26.2168,-96.4998,2.0,273.7751873,25.21470206,-99999.0,'11111222,11111222,99999999' 
TABS,ioos:station:wmo:42045:1,2017-05-01T01:30:00Z,26.2168,-96.4998,2.0,315.3365539,24.09861407,-99999.0,'11111222,11111222,99999999' 
TABS,ioos:station:wmo:42045:1,2017-05-01T02:00:00Z,26.2168,-96.4998,2.0,308.5467638,17.36343284,-99999.0,'11111222,11111222,99999999' 
TABS,ioos:station:wmo:42045:1,2017-05-01T02:30:00Z,26.2168,-96.4998,2.0,304.1161365,11.57136552,-99999.0,'11111222,11111222,99999999' 
TABS,ioos:station:wmo:42045:1,2017-05-01T03:00:00Z,26.2168,-96.4998,2.0,318.9670216,11.65275075,-99999.0,'11111222,11111222,99999999' 
TABS,ioos:station:wmo:42045:1,2017-05-01T03:30:00Z,26.2168,-96.4998,2.0,319.8534007,7.52230018,-99999.0,'11133222,11111222,99999999' 
TABS,ioos:station:wmo:42045:1,2017-05-01T04:00:00Z,26.2168,-96.4998,2.0,330.5823168,6.738916827,-99999.0,'11133222,11111222,99999999' 
TABS,ioos:station:wmo:42045:1,2017-05-01T04:30:00Z,26.2168,-96.4998,2.0,352.5286688,11.07402366,-99999.0,'11111222,11111222,99999999' 
TABS,ioos:station:wmo:42045:1,2017-05-01T05:00:00Z,26.2168,-96.4998,2.0,33.94109414,6.967101262,-99999.0,'11133222,11111222,99999999' 
TABS,ioos:station:wmo:42045:1,2017-05-01T05:30:00Z,26.2168,-96.4998,2.0,57.40749474,8.688198893,-99999.0,'11133222,11111222,99999999' 
TABS,ioos:station:wmo:42045:1,2017-05-01T06:00:00Z,26.2168,-96.4998,2.0,53.54383007,10.80428156,-99999.0,'11111222,11111222,99999999' 
TABS,ioos:station:wmo:42045:1,2017-05-01T06:30:00Z,26.2168,-96.4998,2.0,88.26906497,10.92498513,-99999.0,'11111222,11111222,99999999' 
TABS,ioos:station:wmo:42045:1,2017-05-01T07:00:00Z,26.2168,-96.4998,2.0,87.73691672,11.6490858,-99999.0,'11111222,11111222,99999999' 
TABS,ioos:station:wmo:42045:1,2017-05-01T07:30:00Z,26.2168,-96.4998,2.0,87.69059809,13.4008843,-99999.0,'11111222,11111222,99999999' 
TABS,ioos:station:wmo:42045:1,2017-05-01T08:00:00Z,26.2168,-96.4998,2.0,96.76045119,15.2057259,-99999.0,'11111222,11111222,99999999' 
TABS,ioos:station:wmo:42045:1,2017-05-01T08:30:00Z,26.2168,-96.4998,2.0,80.65402429,16.19497762,-99999.0,'11111222,11111222,99999999' 
TABS,ioos:station:wmo:42045:1,2017-05-01T09:00:00Z,26.2168,-96.4998,2.0,91.94945128,17.04986803,-99999.0,'11111222,11111222,99999999' 
TABS,ioos:station:wmo:42045:1,2017-05-01T09:30:00Z,26.2168,-96.4998,2.0,98.38503404,16.52666331,-99999.0,'11111222,11111222,99999999' 
TABS,ioos:station:wmo:42045:1,2017-05-01T10:00:00Z,26.2168,-96.4998,2.0,104.0930798,14.66128576,-99999.0,'11111222,11111222,99999999' 
TABS,ioos:station:wmo:42045:1,2017-05-01T10:30:00Z,26.2168,-96.4998,2.0,109.3186719,14.14655082,-99999.0,'11111222,11111222,99999999' 
TABS,ioos:station:wmo:42045:1,2017-05-01T11:00:00Z,26.2168,-96.4998,2.0,113.2533946,19.19963541,-99999.0,'11111222,11111222,99999999' 
TABS,ioos:station:wmo:42045:1,2017-05-01T11:30:00Z,26.2168,-96.4998,2.0,124.7522917,18.99897366,-99999.0,'11111222,11111222,99999999' 
TABS,ioos:station:wmo:42045:1,2017-05-01T12:00:00Z,26.2168,-96.4998,2.0,127.0361263,22.04809289,-99999.0,'11111222,11111222,99999999' 
TABS,ioos:station:wmo:42045:1,2017-05-01T12:30:00Z,26.2168,-96.4998,2.0,133.8558291,19.12397971,-99999.0,'11111222,11111222,99999999' 
TABS,ioos:station:wmo:42045:1,2017-05-01T13:00:00Z,26.2168,-96.4998,2.0,136.088716,19.3499354,-99999.0,'11111222,11111222,99999999' 
TABS,ioos:station:wmo:42045:1,2017-05-01T13:30:00Z,26.2168,-96.4998,2.0,134.9651069,23.29210167,-99999.0,'11111222,11111222,99999999' 
TABS,ioos:station:wmo:42045:1,2017-05-01T14:00:00Z,26.2168,-96.4998,2.0,149.5226222,24.84246566,-99999.0,'11111222,11111222,99999999' 
TABS,ioos:station:wmo:42045:1,2017-05-01T14:30:00Z,26.2168,-96.4998,2.0,141.2443828,24.31316516,-99999.0,'11111222,11111222,99999999' 
TABS,ioos:station:wmo:42045:1,2017-05-01T15:00:00Z,26.2168,-96.4998,2.0,152.7510281,21.36044241,-99999.0,'11111222,11111222,99999999' 
TABS,ioos:station:wmo:42045:1,2017-05-01T15:30:00Z,26.2168,-96.4998,2.0,158.5230488,19.00993688,-99999.0,'11111222,11111222,99999999' 
TABS,ioos:station:wmo:42045:1,2017-05-01T16:00:00Z,26.2168,-96.4998,2.0,160.9634019,18.97787396,-99999.0,'11111222,11111222,99999999' 
TABS,ioos:station:wmo:42045:1,2017-05-01T16:30:00Z,26.2168,-96.4998,2.0,173.8007504,19.72533903,-99999.0,'11111222,11111222,99999999' 
TABS,ioos:station:wmo:42045:1,2017-05-01T17:00:00Z,26.2168,-96.4998,2.0,168.1683682,17.02162448,-99999.0,'11111222,11111222,99999999' 
TABS,ioos:station:wmo:42045:1,2017-05-01T17:30:00Z,26.2168,-96.4998,2.0,184.216064,19.99411163,-99999.0,'11111222,11111222,99999999' 
TABS,ioos:station:wmo:42045:1,2017-05-01T18:00:00Z,26.2168,-96.4998,2.0,186.9776973,22.22461698,-99999.0,'11111222,11111222,99999999' 
TABS,ioos:station:wmo:42045:1,2017-05-01T18:30:00Z,26.2168,-96.4998,2.0,202.5373437,21.96771495,-99999.0,'11111222,11111222,99999999' 
TABS,ioos:station:wmo:42045:1,2017-05-01T19:00:00Z,26.2168,-96.4998,2.0,214.2676974,23.9226629,-99999.0,'11111222,11111222,99999999' 
TABS,ioos:station:wmo:42045:1,2017-05-01T19:30:00Z,26.2168,-96.4998,2.0,216.4982019,21.90646023,-99999.0,'11111222,11111222,99999999' 
TABS,ioos:station:wmo:42045:1,2017-05-01T20:00:00Z,26.2168,-96.4998,2.0,211.7953113,20.55455667,-99999.0,'11111222,11111222,99999999' 
TABS,ioos:station:wmo:42045:1,2017-05-01T20:30:00Z,26.2168,-96.4998,2.0,219.3589151,21.3661625,-99999.0,'11111222,11111222,99999999' 
TABS,ioos:station:wmo:42045:1,2017-05-01T21:00:00Z,26.2168,-96.4998,2.0,233.5908897,21.86870824,-99999.0,'11111222,11111222,99999999' 
TABS,ioos:station:wmo:42045:1,2017-05-01T21:30:00Z,26.2168,-96.4998,2.0,236.7143153,24.34362545,-99999.0,'11111222,11111222,99999999' 
TABS,ioos:station:wmo:42045:1,2017-05-01T22:00:00Z,26.2168,-96.4998,2.0,244.5661539,23.09861468,-99999.0,'11111222,11111222,99999999' 
TABS,ioos:station:wmo:42045:1,2017-05-01T22:30:00Z,26.2168,-96.4998,2.0,243.490109,23.07623236,-99999.0,'11111222,11111222,99999999' 
TABS,ioos:station:wmo:42045:1,2017-05-01T23:00:00Z,26.2168,-96.4998,2.0,250.7674556,25.22793095,-99999.0,'11111222,11111222,99999999' 
TABS,ioos:station:wmo:42045:1,2017-05-01T23:30:00Z,26.2168,-96.4998,2.0,260.1838438,24.51893146,-99999.0,'11111222,11111222,99999999' 
TABS,ioos:station:wmo:42045:1,2017-05-02T00:00:00Z,26.2168,-96.4998,2.0,268.2104943,21.78061753,-99999.0,'11111222,11111222,99999999' 
TABS,ioos:station:wmo:42045:1,2017-05-02T00:30:00Z,26.2168,-96.4998,2.0,270.2000565,20.09012195,-99999.0,'11111222,11111222,99999999' 
TABS,ioos:station:wmo:42045:1,2017-05-02T01:00:00Z,26.2168,-96.4998,2.0,280.9077615,19.81802462,-99999.0,'11111222,11111222,99999999' 
TABS,ioos:station:wmo:42045:1,2017-05-02T01:30:00Z,26.2168,-96.4998,2.0,282.9035834,22.07748401,-99999.0,'11111222,11111222,99999999' 
TABS,ioos:station:wmo:42045:1,2017-05-02T02:00:00Z,26.2168,-96.4998,2.0,279.335059,22.87288788,-99999.0,'11111222,11111222,99999999' 
TABS,ioos:station:wmo:42045:1,2017-05-02T02:30:00Z,26.2168,-96.4998,2.0,292.0534194,20.29483925,-99999.0,'11111222,11111222,99999999' 
TABS,ioos:station:wmo:42045:1,2017-05-02T03:00:00Z,26.2168,-96.4998,2.0,299.924281,17.86108899,-99999.0,'11111222,11111222,99999999' 
TABS,ioos:station:wmo:42045:1,2017-05-02T03:30:00Z,26.2168,-96.4998,2.0,304.8933813,18.49500743,-99999.0,'11111222,11111222,99999999' 
TABS,ioos:station:wmo:42045:1,2017-05-02T04:00:00Z,26.2168,-96.4998,2.0,312.167339,21.31703779,-99999.0,'11111222,11111222,99999999' 
TABS,ioos:station:wmo:42045:1,2017-05-02T04:30:00Z,26.2168,-96.4998,2.0,316.2869068,18.58037944,-99999.0,'11111222,11111222,99999999' 
TABS,ioos:station:wmo:42045:1,2017-05-02T05:00:00Z,26.2168,-96.4998,2.0,329.0584166,22.44402148,-99999.0,'11111222,11111222,99999999' 
TABS,ioos:station:wmo:42045:1,2017-05-02T05:30:00Z,26.2168,-96.4998,2.0,330.1922487,19.13112908,-99999.0,'11111222,11111222,99999999' 
TABS,ioos:station:wmo:42045:1,2017-05-02T06:00:00Z,26.2168,-96.4998,2.0,331.2916493,22.35843689,-99999.0,'11111222,11111222,99999999' 
TABS,ioos:station:wmo:42045:1,2017-05-02T06:30:00Z,26.2168,-96.4998,2.0,342.0943206,22.60492424,-99999.0,'11111222,11111222,99999999' 
TABS,ioos:station:wmo:42045:1,2017-05-02T07:00:00Z,26.2168,-96.4998,2.0,1.566397739,22.31833775,-99999.0,'11111222,11111222,99999999' 
TABS,ioos:station:wmo:42045:1,2017-05-02T07:30:00Z,26.2168,-96.4998,2.0,3.533210009,19.79762612,-99999.0,'11111222,11111222,99999999' 
TABS,ioos:station:wmo:42045:1,2017-05-02T08:00:00Z,26.2168,-96.4998,2.0,9.610617254,21.62347104,-99999.0,'11111222,11111222,99999999' 
TABS,ioos:station:wmo:42045:1,2017-05-02T08:30:00Z,26.2168,-96.4998,2.0,9.681734971,26.6394069,-99999.0,'11111222,11111222,99999999' 
TABS,ioos:station:wmo:42045:1,2017-05-02T09:00:00Z,26.2168,-96.4998,2.0,21.27366549,25.79789139,-99999.0,'11111222,11111222,99999999' 
TABS,ioos:station:wmo:42045:1,2017-05-02T09:30:00Z,26.2168,-96.4998,2.0,19.60532985,20.59388501,-99999.0,'11111222,11111222,99999999' 
TABS,ioos:station:wmo:42045:1,2017-05-02T10:00:00Z,26.2168,-96.4998,2.0,26.55418536,23.26405167,-99999.0,'11111222,11111222,99999999' 
TABS,ioos:station:wmo:42045:1,2017-05-02T10:30:00Z,26.2168,-96.4998,2.0,23.55118202,21.77364462,-99999.0,'11111222,11111222,99999999' 
TABS,ioos:station:wmo:42045:1,2017-05-02T11:00:00Z,26.2168,-96.4998,2.0,36.46757843,22.4945549,-99999.0,'11111222,11111222,99999999' 
TABS,ioos:station:wmo:42045:1,2017-05-02T11:30:00Z,26.2168,-96.4998,2.0,36.50238711,22.44246199,-99999.0,'11111222,11111222,99999999' 
TABS,ioos:station:wmo:42045:1,2017-05-02T12:00:00Z,26.2168,-96.4998,2.0,47.93384636,21.55257757,-99999.0,'11111222,11111222,99999999' 
TABS,ioos:station:wmo:42045:1,2017-05-02T12:30:00Z,26.2168,-96.4998,2.0,47.11337687,23.0107627,-99999.0,'11111222,11111222,99999999' 
TABS,ioos:station:wmo:42045:1,2017-05-02T13:00:00Z,26.2168,-96.4998,2.0,52.92131586,21.39614218,-99999.0,'11111222,11111222,99999999' 
TABS,ioos:station:wmo:42045:1,2017-05-02T13:30:00Z,26.2168,-96.4998,2.0,53.13018857,19.4,-99999.0,'11111222,11111222,99999999' 
TABS,ioos:station:wmo:42045:1,2017-05-02T14:00:00Z,26.2168,-96.4998,2.0,64.54891341,18.17372279,-99999.0,'11111222,11111222,99999999' 
TABS,ioos:station:wmo:42045:1,2017-05-02T14:30:00Z,26.2168,-96.4998,2.0,56.31001126,16.98214651,-99999.0,'11111222,11111222,99999999' 
TABS,ioos:station:wmo:42045:1,2017-05-02T15:00:00Z,26.2168,-96.4998,2.0,63.26248146,16.33678671,-99999.0,'11111222,11111222,99999999' 
TABS,ioos:station:wmo:42045:1,2017-05-02T15:30:00Z,26.2168,-96.4998,2.0,80.00789399,18.84586161,-99999.0,'11111222,11111222,99999999' 
TABS,ioos:station:wmo:42045:1,2017-05-02T16:00:00Z,26.2168,-96.4998,2.0,75.45213317,12.22185747,-99999.0,'11111222,11111222,99999999' 
TABS,ioos:station:wmo:42045:1,2017-05-02T16:30:00Z,26.2168,-96.4998,2.0,78.2694771,13.62455504,-99999.0,'11111222,11111222,99999999' 
TABS,ioos:station:wmo:42045:1,2017-05-02T17:00:00Z,26.2168,-96.4998,2.0,85.38229883,10.43386793,-99999.0,'11111222,11111222,99999999' 
TABS,ioos:station:wmo:42045:1,2017-05-02T17:30:00Z,26.2168,-96.4998,2.0,87.45913572,9.699536071,-99999.0,'11133222,11111222,99999999' 
TABS,ioos:station:wmo:42045:1,2017-05-02T18:00:00Z,26.2168,-96.4998,2.0,115.8429917,12.06678085,-99999.0,'11111222,11111222,99999999' 
TABS,ioos:station:wmo:42045:1,2017-05-02T18:30:00Z,26.2168,-96.4998,2.0,112.9812162,10.73175195,-99999.0,'11111222,11111222,99999999' 
TABS,ioos:station:wmo:42045:1,2017-05-02T19:00:00Z,26.2168,-96.4998,2.0,134.1579108,11.06741614,-99999.0,'11111222,11111222,99999999' 
TABS,ioos:station:wmo:42045:1,2017-05-02T19:30:00Z,26.2168,-96.4998,2.0,140.4101895,10.8742494,-99999.0,'11111222,11111222,99999999' 
TABS,ioos:station:wmo:42045:1,2017-05-02T20:00:00Z,26.2168,-96.4998,2.0,151.6457406,9.454231857,-99999.0,'11133222,11111222,99999999' 
TABS,ioos:station:wmo:42045:1,2017-05-02T20:30:00Z,26.2168,-96.4998,2.0,151.2099576,8.409482743,-99999.0,'11133222,11111222,99999999' 
TABS,ioos:station:wmo:42045:1,2017-05-02T21:00:00Z,26.2168,-96.4998,2.0,166.745108,9.246318186,-99999.0,'11133222,11111222,99999999' 
TABS,ioos:station:wmo:42045:1,2017-05-02T21:30:00Z,26.2168,-96.4998,2.0,178.1651209,9.995123811,-99999.0,'11133222,11111222,99999999' 
TABS,ioos:station:wmo:42045:1,2017-05-02T22:00:00Z,26.2168,-96.4998,2.0,182.1249136,10.51723348,-99999.0,'11111222,11111222,99999999' 
TABS,ioos:station:wmo:42045:1,2017-05-02T22:30:00Z,26.2168,-96.4998,2.0,194.7128793,8.622743183,-99999.0,'11133222,11111222,99999999' 
TABS,ioos:station:wmo:42045:1,2017-05-02T23:00:00Z,26.2168,-96.4998,2.0,191.4345225,11.70227756,-99999.0,'11111222,11111222,99999999' 
TABS,ioos:station:wmo:42045:1,2017-05-02T23:30:00Z,26.2168,-96.4998,2.0,214.9269714,10.14783228,-99999.0,'11111222,11111222,99999999' 
TABS,ioos:station:wmo:42045:1,2017-05-03T00:00:00Z,26.2168,-96.4998,2.0,230.6010504,7.751548232,-99999.0,'11133222,11111222,99999999' 
TABS,ioos:station:wmo:42045:1,2017-05-03T00:30:00Z,26.2168,-96.4998,2.0,225.8633723,11.25841907,-99999.0,'11111222,11111222,99999999' 
TABS,ioos:station:wmo:42045:1,2017-05-03T01:00:00Z,26.2168,-96.4998,2.0,217.600107,13.17707099,-99999.0,'11111222,11111222,99999999' 
TABS,ioos:station:wmo:42045:1,2017-05-03T01:30:00Z,26.2168,-96.4998,2.0,229.9352504,8.218771198,-99999.0,'11133222,11111222,99999999' 
TABS,ioos:station:wmo:42045:1,2017-05-03T02:00:00Z,26.2168,-96.4998,2.0,231.9815909,9.481903817,-99999.0,'11133222,11111222,99999999' 
TABS,ioos:station:wmo:42045:1,2017-05-03T02:30:00Z,26.2168,-96.4998,2.0,234.2797083,10.96220781,-99999.0,'11111222,11111222,99999999' 
TABS,ioos:station:wmo:42045:1,2017-05-03T03:00:00Z,26.2168,-96.4998,2.0,227.8591699,6.945365361,-99999.0,'11133222,11111222,99999999' 
TABS,ioos:station:wmo:42045:1,2017-05-03T03:30:00Z,26.2168,-96.4998,2.0,248.8182791,10.29555244,-99999.0,'11111222,11111222,99999999' 
TABS,ioos:station:wmo:42045:1,2017-05-03T04:00:00Z,26.2168,-96.4998,2.0,250.9382979,13.59544409,-99999.0,'11111222,11111222,99999999' 
TABS,ioos:station:wmo:42045:1,2017-05-03T04:30:00Z,26.2168,-96.4998,2.0,262.090051,13.22582323,-99999.0,'11111222,11111222,99999999' 
TABS,ioos:station:wmo:42045:1,2017-05-03T05:00:00Z,26.2168,-96.4998,2.0,265.4563974,13.38204768,-99999.0,'11111222,11111222,99999999' 
TABS,ioos:station:wmo:42045:1,2017-05-03T05:30:00Z,26.2168,-96.4998,2.0,275.5886748,12.11759052,-99999.0,'11111222,11111222,99999999' 
TABS,ioos:station:wmo:42045:1,2017-05-03T06:00:00Z,26.2168,-96.4998,2.0,276.0235879,10.5783978,-99999.0,'11111222,11111222,99999999' 
TABS,ioos:station:wmo:42045:1,2017-05-03T06:30:00Z,26.2168,-96.4998,2.0,271.2643902,14.05341951,-99999.0,'11111222,11111222,99999999' 
TABS,ioos:station:wmo:42045:1,2017-05-03T07:00:00Z,26.2168,-96.4998,2.0,294.1429686,12.27356509,-99999.0,'11111222,11111222,99999999' 
TABS,ioos:station:wmo:42045:1,2017-05-03T07:30:00Z,26.2168,-96.4998,2.0,280.2324176,14.07382322,-99999.0,'11111222,11111222,99999999' 
TABS,ioos:station:wmo:42045:1,2017-05-03T08:00:00Z,26.2168,-96.4998,2.0,275.5713438,11.0220597,-99999.0,'11111222,11111222,99999999' 
TABS,ioos:station:wmo:42045:1,2017-05-03T08:30:00Z,26.2168,-96.4998,2.0,265.8838117,9.47443402,-99999.0,'11133222,11111222,99999999' 
TABS,ioos:station:wmo:42045:1,2017-05-03T09:00:00Z,26.2168,-96.4998,2.0,266.4492906,5.490537314,-99999.0,'11133222,11111222,99999999' 
TABS,ioos:station:wmo:42045:1,2017-05-03T09:30:00Z,26.2168,-96.4998,2.0,299.7544412,7.717441286,-99999.0,'11133222,11111222,99999999' 
TABS,ioos:station:wmo:42045:1,2017-05-03T10:00:00Z,26.2168,-96.4998,2.0,298.7982834,1.951332878,-99999.0,'11133222,11111222,99999999' 
TABS,ioos:station:wmo:42045:1,2017-05-03T10:30:00Z,26.2168,-96.4998,2.0,293.099744,3.033183146,-99999.0,'11133222,11111222,99999999' 
TABS,ioos:station:wmo:42045:1,2017-05-03T11:00:00Z,26.2168,-96.4998,2.0,249.3859984,3.493680008,-99999.0,'11133222,11111222,99999999' 
TABS,ioos:station:wmo:42045:1,2017-05-03T11:30:00Z,26.2168,-96.4998,2.0,309.9762522,2.583795658,-99999.0,'11133222,11111222,99999999' 
TABS,ioos:station:wmo:42045:1,2017-05-03T12:00:00Z,26.2168,-96.4998,2.0,306.3178121,1.452067492,-99999.0,'11133222,11111222,99999999' 
TABS,ioos:station:wmo:42045:1,2017-05-03T12:30:00Z,26.2168,-96.4998,2.0,202.3906644,5.77543072,-99999.0,'11133222,11111222,99999999' 
TABS,ioos:station:wmo:42045:1,2017-05-03T13:00:00Z,26.2168,-96.4998,2.0,129.8536121,4.572198596,-99999.0,'11133222,11111222,99999999' 
TABS,ioos:station:wmo:42045:1,2017-05-03T13:30:00Z,26.2168,-96.4998,2.0,137.5541409,3.808017857,-99999.0,'11133222,11111222,99999999' 
TABS,ioos:station:wmo:42045:1,2017-05-03T14:00:00Z,26.2168,-96.4998,2.0,175.797863,4.913206692,-99999.0,'11133222,11111222,99999999' 
TABS,ioos:station:wmo:42045:1,2017-05-03T14:30:00Z,26.2168,-96.4998,2.0,118.9616143,5.988956503,-99999.0,'11133222,11111222,99999999' 
TABS,ioos:station:wmo:42045:1,2017-05-03T15:00:00Z,26.2168,-96.4998,2.0,150.5467461,10.47362879,-99999.0,'11111222,11111222,99999999' 
TABS,ioos:station:wmo:42045:1,2017-05-03T15:30:00Z,26.2168,-96.4998,2.0,143.1578524,8.222000973,-99999.0,'11133222,11111222,99999999' 
TABS,ioos:station:wmo:42045:1,2017-05-03T16:00:00Z,26.2168,-96.4998,2.0,158.9094622,11.67185075,-99999.0,'11111222,11111222,99999999' 
TABS,ioos:station:wmo:42045:1,2017-05-03T16:30:00Z,26.2168,-96.4998,2.0,143.1422522,9.336000214,-99999.0,'11133222,11111222,99999999' 
TABS,ioos:station:wmo:42045:1,2017-05-03T17:00:00Z,26.2168,-96.4998,2.0,167.3732,11.4365904,-99999.0,'11111222,11111222,99999999' 
TABS,ioos:station:wmo:42045:1,2017-05-03T17:30:00Z,26.2168,-96.4998,2.0,157.8712646,10.40653641,-99999.0,'11111222,11111222,99999999' 
TABS,ioos:station:wmo:42045:1,2017-05-03T18:00:00Z,26.2168,-96.4998,2.0,159.6038655,6.283963717,-99999.0,'11133222,11111222,99999999' 
TABS,ioos:station:wmo:42045:1,2017-05-03T18:30:00Z,26.2168,-96.4998,2.0,208.3175656,34.06678294,-99999.0,'11111222,11111222,99999999' 
TABS,ioos:station:wmo:42045:1,2017-05-03T19:00:00Z,26.2168,-96.4998,2.0,212.8889128,31.74859367,-99999.0,'11111222,11111222,99999999' 
TABS,ioos:station:wmo:42045:1,2017-05-03T19:30:00Z,26.2168,-96.4998,2.0,219.3807904,29.89871235,-99999.0,'11111222,11111222,99999999' 
TABS,ioos:station:wmo:42045:1,2017-05-03T20:00:00Z,26.2168,-96.4998,2.0,217.9806808,27.02308088,-99999.0,'11111222,11111222,99999999' 
TABS,ioos:station:wmo:42045:1,2017-05-03T20:30:00Z,26.2168,-96.4998,2.0,227.8104855,22.35025056,-99999.0,'11111222,11111222,99999999' 
TABS,ioos:station:wmo:42045:1,2017-05-03T21:00:00Z,26.2168,-96.4998,2.0,225.44122,19.26923195,-99999.0,'11111222,11111222,99999999' 
TABS,ioos:station:wmo:42045:1,2017-05-03T21:30:00Z,26.2168,-96.4998,2.0,240.3796538,18.20958264,-99999.0,'11111222,11111222,99999999' 
TABS,ioos:station:wmo:42045:1,2017-05-03T22:00:00Z,26.2168,-96.4998,2.0,221.8164011,19.48256913,-99999.0,'11111222,11111222,99999999' 
TABS,ioos:station:wmo:42045:1,2017-05-03T22:30:00Z,26.2168,-96.4998,2.0,225.3888217,17.69929095,-99999.0,'11111222,11111222,99999999' 
TABS,ioos:station:wmo:42045:1,2017-05-03T23:00:00Z,26.2168,-96.4998,2.0,213.9686527,17.66463699,-99999.0,'11111222,11111222,99999999' 
TABS,ioos:station:wmo:42045:1,2017-05-04T00:00:00Z,26.2168,-96.4998,2.0,200.9746869,18.40989408,-99999.0,'11111222,11111222,99999999' 
TABS,ioos:station:wmo:42045:1,2017-05-04T00:30:00Z,26.2168,-96.4998,2.0,189.9139012,19.80576179,-99999.0,'11111222,11111222,99999999' 
TABS,ioos:station:wmo:42045:1,2017-05-04T01:00:00Z,26.2168,-96.4998,2.0,196.9966562,17.51504782,-99999.0,'11111222,11111222,99999999' 
TABS,ioos:station:wmo:42045:1,2017-05-04T01:30:00Z,26.2168,-96.4998,2.0,190.8353682,20.37324226,-99999.0,'11111222,11111222,99999999' 
TABS,ioos:station:wmo:42045:1,2017-05-04T02:00:00Z,26.2168,-96.4998,2.0,193.1767939,21.18786917,-99999.0,'11111222,11111222,99999999' 
TABS,ioos:station:wmo:42045:1,2017-05-04T02:30:00Z,26.2168,-96.4998,2.0,192.7600577,19.06075025,-99999.0,'11111222,11111222,99999999' 
TABS,ioos:station:wmo:42045:1,2017-05-04T03:00:00Z,26.2168,-96.4998,2.0,192.4833592,19.24499156,-99999.0,'11111222,11111222,99999999' 
TABS,ioos:station:wmo:42045:1,2017-05-04T03:30:00Z,26.2168,-96.4998,2.0,192.3017528,20.27556411,-99999.0,'11111222,11111222,99999999' 
TABS,ioos:station:wmo:42045:1,2017-05-04T04:00:00Z,26.2168,-96.4998,2.0,188.3073751,21.45513691,-99999.0,'11111222,11111222,99999999' 
TABS,ioos:station:wmo:42045:1,2017-05-04T04:30:00Z,26.2168,-96.4998,2.0,181.0811362,25.43452968,-99999.0,'11111222,11111222,99999999' 
TABS,ioos:station:wmo:42045:1,2017-05-04T05:00:00Z,26.2168,-96.4998,2.0,166.7126164,23.19081284,-99999.0,'11111222,11111222,99999999' 
TABS,ioos:station:wmo:42045:1,2017-05-04T05:30:00Z,26.2168,-96.4998,2.0,169.8804772,22.65238177,-99999.0,'11111222,11111222,99999999' 
TABS,ioos:station:wmo:42045:1,2017-05-04T06:00:00Z,26.2168,-96.4998,2.0,173.0986623,22.22099233,-99999.0,'11111222,11111222,99999999' 
TABS,ioos:station:wmo:42045:1,2017-05-04T06:30:00Z,26.2168,-96.4998,2.0,166.9530815,24.71806627,-99999.0,'11111222,11111222,99999999' 
TABS,ioos:station:wmo:42045:1,2017-05-04T07:00:00Z,26.2168,-96.4998,2.0,171.0647579,25.36783791,-99999.0,'11111222,11111222,99999999' 
TABS,ioos:station:wmo:42045:1,2017-05-04T07:30:00Z,26.2168,-96.4998,2.0,131.9871143,11.3010442,-99999.0,'11111222,11111222,99999999' 
TABS,ioos:station:wmo:42045:1,2017-05-04T08:00:00Z,26.2168,-96.4998,2.0,170.712045,29.67908691,-99999.0,'11111222,11111222,99999999' 
TABS,ioos:station:wmo:42045:1,2017-05-04T08:30:00Z,26.2168,-96.4998,2.0,171.2173183,31.17553047,-99999.0,'11111222,11111222,99999999' 
TABS,ioos:station:wmo:42045:1,2017-05-04T09:00:00Z,26.2168,-96.4998,2.0,182.32422,39.94286545,-99999.0,'11111222,11111222,99999999' 
TABS,ioos:station:wmo:42045:1,2017-05-04T09:30:00Z,26.2168,-96.4998,2.0,174.9114332,36.19263185,-99999.0,'11111222,11111222,99999999' 
TABS,ioos:station:wmo:42045:1,2017-05-04T10:00:00Z,26.2168,-96.4998,2.0,192.5731229,30.68590719,-99999.0,'11111222,11111222,99999999' 
TABS,ioos:station:wmo:42045:1,2017-05-04T10:30:00Z,26.2168,-96.4998,2.0,201.6508395,30.43742762,-99999.0,'11111222,11111222,99999999' 
TABS,ioos:station:wmo:42045:1,2017-05-04T11:00:00Z,26.2168,-96.4998,2.0,202.5258853,27.74696019,-99999.0,'11111222,11111222,99999999' 
TABS,ioos:station:wmo:42045:1,2017-05-04T11:30:00Z,26.2168,-96.4998,2.0,208.2740936,30.8848976,-99999.0,'11111222,11111222,99999999' 
TABS,ioos:station:wmo:42045:1,2017-05-04T12:00:00Z,26.2168,-96.4998,2.0,202.7312578,35.92006821,-99999.0,'11111222,11111222,99999999' 
TABS,ioos:station:wmo:42045:1,2017-05-04T12:30:00Z,26.2168,-96.4998,2.0,218.950029,45.89224989,-99999.0,'11111222,11111222,99999999' 
TABS,ioos:station:wmo:42045:1,2017-05-04T13:00:00Z,26.2168,-96.4998,2.0,214.9139007,47.64575322,-99999.0,'11111222,11111222,99999999' 
TABS,ioos:station:wmo:42045:1,2017-05-04T13:30:00Z,26.2168,-96.4998,2.0,221.1015549,46.80561718,-99999.0,'11111222,11111222,99999999' 
TABS,ioos:station:wmo:42045:1,2017-05-04T14:00:00Z,26.2168,-96.4998,2.0,213.0937138,44.52264705,-99999.0,'11111222,11111222,99999999' 
TABS,ioos:station:wmo:42045:1,2017-05-04T14:30:00Z,26.2168,-96.4998,2.0,220.20446,41.53233078,-99999.0,'11111222,11111222,99999999' 
TABS,ioos:station:wmo:42045:1,2017-05-04T15:00:00Z,26.2168,-96.4998,2.0,215.4144826,45.52268006,-99999.0,'11111222,11111222,99999999' 
TABS,ioos:station:wmo:42045:1,2017-05-04T15:30:00Z,26.2168,-96.4998,2.0,210.9208385,48.39862911,-99999.0,'11111222,11111222,99999999' 
TABS,ioos:station:wmo:42045:1,2017-05-04T16:00:00Z,26.2168,-96.4998,2.0,208.2770604,46.39676713,-99999.0,'11111222,11111222,99999999' 
TABS,ioos:station:wmo:42045:1,2017-05-04T16:30:00Z,26.2168,-96.4998,2.0,209.0758297,43.99439623,-99999.0,'11111222,11111222,99999999' 